owner,sensor,date,latitude,longitude,vertical_datum,wind_speed,wind_to_direction,wind_speed_of_gust,qcFlag 
ADCP,ioos:station:wmo:42369:1,2014-06-20T22:00:00Z,27.2070,-90.2830,60.4,0.4,92.0,99.0,'11111222,11111222,11144222' 
ADCP,ioos:station:wmo:42369:1,2014-06-20T22:20:00Z,27.2070,-90.2830,60.4,0.4,92.0,99.0,'11111222,11111222,11144222' 
ADCP,ioos:station:wmo:42369:1,2014-06-20T22:40:00Z,27.2070,-90.2830,60.4,0.5,91.0,99.0,'11111222,11111222,11144222' 
ADCP,ioos:station:wmo:42369:1,2014-06-20T23:00:00Z,27.2070,-90.2830,60.4,0.7,89.0,99.0,'11111222,11111222,11144222' 
ADCP,ioos:station:wmo:42369:1,2014-06-20T23:20:00Z,27.2070,-90.2830,60.4,0.7,89.0,99.0,'11111222,11111222,11144222' 
ADCP,ioos:station:wmo:42369:1,2014-06-20T23:40:00Z,27.2070,-90.2830,60.4,0.7,89.0,99.0,'11111222,11111222,11144222' 
ADCP,ioos:station:wmo:42369:1,2014-06-21T00:00:00Z,27.2070,-90.2830,60.4,0.4,89.0,99.0,'11111222,11111222,11144222' 
ADCP,ioos:station:wmo:42369:1,2014-06-21T00:20:00Z,27.2070,-90.2830,60.4,0.1,82.0,99.0,'11111222,11111222,11144222' 
ADCP,ioos:station:wmo:42369:1,2014-06-21T00:40:00Z,27.2070,-90.2830,60.4,0.1,82.0,99.0,'11111222,11111222,11144222' 
ADCP,ioos:station:wmo:42369:1,2014-06-21T01:00:00Z,27.2070,-90.2830,60.4,0.1,82.0,99.0,'11111222,11111222,11144222' 
ADCP,ioos:station:wmo:42369:1,2014-06-21T01:20:00Z,27.2070,-90.2830,60.4,0.1,82.0,99.0,'11111222,11111222,11144222' 
ADCP,ioos:station:wmo:42369:1,2014-06-21T01:40:00Z,27.2070,-90.2830,60.4,0.1,82.0,99.0,'11111222,11111222,11144222' 
ADCP,ioos:station:wmo:42369:1,2014-06-21T02:00:00Z,27.2070,-90.2830,60.4,0.4,65.0,99.0,'11111222,11111222,11144222' 
ADCP,ioos:station:wmo:42369:1,2014-06-21T02:20:00Z,27.2070,-90.2830,60.4,0.4,65.0,99.0,'11111222,11111222,11144222' 
ADCP,ioos:station:wmo:42369:1,2014-06-21T02:40:00Z,27.2070,-90.2830,60.4,0.4,65.0,99.0,'11111222,11111222,11144222' 
ADCP,ioos:station:wmo:42369:1,2014-06-21T03:00:00Z,27.2070,-90.2830,60.4,0.3,85.0,99.0,'11111222,11111222,11144222' 
ADCP,ioos:station:wmo:42369:1,2014-06-21T03:20:00Z,27.2070,-90.2830,60.4,0.2,86.0,99.0,'11111222,11111222,11144222' 
ADCP,ioos:station:wmo:42369:1,2014-06-21T03:40:00Z,27.2070,-90.2830,60.4,0.4,81.0,99.0,'11111222,11111222,11144222' 
ADCP,ioos:station:wmo:42369:1,2014-06-21T04:00:00Z,27.2070,-90.2830,60.4,0.4,81.0,99.0,'11111222,11111222,11144222' 
ADCP,ioos:station:wmo:42369:1,2014-06-21T04:20:00Z,27.2070,-90.2830,60.4,0.3,88.0,99.0,'11111222,11111222,11144222' 
ADCP,ioos:station:wmo:42369:1,2014-06-21T04:40:00Z,27.2070,-90.2830,60.4,0.3,88.0,99.0,'11111222,11111222,11144222' 
ADCP,ioos:station:wmo:42369:1,2014-06-21T05:00:00Z,27.2070,-90.2830,60.4,0.5,88.0,99.0,'11111222,11111222,11144222' 
ADCP,ioos:station:wmo:42369:1,2014-06-21T05:40:00Z,27.2070,-90.2830,60.4,0.5,89.0,99.0,'11111222,11111222,11144222' 
ADCP,ioos:station:wmo:42369:1,2014-06-21T06:00:00Z,27.2070,-90.2830,60.4,0.4,92.0,99.0,'11111222,11111222,11144222' 
ADCP,ioos:station:wmo:42369:1,2014-06-21T06:20:00Z,27.2070,-90.2830,60.4,0.6,92.0,99.0,'11111222,11111222,11144222' 
ADCP,ioos:station:wmo:42369:1,2014-06-21T06:40:00Z,27.2070,-90.2830,60.4,0.2,98.0,99.0,'11111222,11111222,11144222' 
ADCP,ioos:station:wmo:42369:1,2014-06-21T07:00:00Z,27.2070,-90.2830,60.4,0.3,135.0,99.0,'11111222,11111222,11144222' 
ADCP,ioos:station:wmo:42369:1,2014-06-21T07:20:00Z,27.2070,-90.2830,60.4,0.1,189.0,99.0,'11111222,11111222,11144222' 
ADCP,ioos:station:wmo:42369:1,2014-06-21T07:40:00Z,27.2070,-90.2830,60.4,0.0,122.0,99.0,'11111222,11111222,11144222' 
ADCP,ioos:station:wmo:42369:1,2014-06-21T08:00:00Z,27.2070,-90.2830,60.4,0.1,102.0,99.0,'11111222,11111222,11144222' 
ADCP,ioos:station:wmo:42369:1,2014-06-21T08:20:00Z,27.2070,-90.2830,60.4,0.1,102.0,99.0,'11111222,11111222,11144222' 
ADCP,ioos:station:wmo:42369:1,2014-06-21T08:40:00Z,27.2070,-90.2830,60.4,0.1,116.0,99.0,'11111222,11111222,11144222' 
ADCP,ioos:station:wmo:42369:1,2014-06-21T09:00:00Z,27.2070,-90.2830,60.4,0.0,125.0,99.0,'11111222,11111222,11144222' 
ADCP,ioos:station:wmo:42369:1,2014-06-21T09:20:00Z,27.2070,-90.2830,60.4,0.0,129.0,99.0,'11111222,11111222,11144222' 
ADCP,ioos:station:wmo:42369:1,2014-06-21T09:40:00Z,27.2070,-90.2830,60.4,0.0,129.0,99.0,'11111222,11111222,11144222' 
ADCP,ioos:station:wmo:42369:1,2014-06-21T10:00:00Z,27.2070,-90.2830,60.4,0.0,129.0,99.0,'11111222,11111222,11144222' 
ADCP,ioos:station:wmo:42369:1,2014-06-21T10:20:00Z,27.2070,-90.2830,60.4,0.0,129.0,99.0,'11111222,11111222,11144222' 
ADCP,ioos:station:wmo:42369:1,2014-06-21T10:40:00Z,27.2070,-90.2830,60.4,0.0,129.0,99.0,'11111222,11111222,11144222' 
ADCP,ioos:station:wmo:42369:1,2014-06-21T11:00:00Z,27.2070,-90.2830,60.4,1.4,298.0,99.0,'11111222,11111222,11144222' 
ADCP,ioos:station:wmo:42369:1,2014-06-21T11:20:00Z,27.2070,-90.2830,60.4,1.4,298.0,99.0,'11111222,11111222,11144222' 
ADCP,ioos:station:wmo:42369:1,2014-06-21T11:40:00Z,27.2070,-90.2830,60.4,1.4,298.0,99.0,'11111222,11111222,11144222' 
ADCP,ioos:station:wmo:42369:1,2014-06-21T12:00:00Z,27.2070,-90.2830,60.4,1.5,322.0,99.0,'11111222,11111222,11144222' 
ADCP,ioos:station:wmo:42369:1,2014-06-21T12:20:00Z,27.2070,-90.2830,60.4,1.5,322.0,99.0,'11111222,11111222,11144222' 
ADCP,ioos:station:wmo:42369:1,2014-06-21T12:40:00Z,27.2070,-90.2830,60.4,1.5,322.0,99.0,'11111222,11111222,11144222' 
ADCP,ioos:station:wmo:42369:1,2014-06-21T13:00:00Z,27.2070,-90.2830,60.4,0.7,331.0,99.0,'11111222,11111222,11144222' 
ADCP,ioos:station:wmo:42369:1,2014-06-21T13:20:00Z,27.2070,-90.2830,60.4,0.7,331.0,99.0,'11111222,11111222,11144222' 
ADCP,ioos:station:wmo:42369:1,2014-06-21T13:40:00Z,27.2070,-90.2830,60.4,0.7,331.0,99.0,'11111222,11111222,11144222' 
ADCP,ioos:station:wmo:42369:1,2014-06-21T14:00:00Z,27.2070,-90.2830,60.4,1.2,333.0,99.0,'11111222,11111222,11144222' 
ADCP,ioos:station:wmo:42369:1,2014-06-21T14:20:00Z,27.2070,-90.2830,60.4,1.2,333.0,99.0,'11111222,11111222,11144222' 
ADCP,ioos:station:wmo:42369:1,2014-06-21T14:40:00Z,27.2070,-90.2830,60.4,1.2,333.0,99.0,'11111222,11111222,11144222' 
ADCP,ioos:station:wmo:42369:1,2014-06-21T15:00:00Z,27.2070,-90.2830,60.4,1.2,333.0,99.0,'11111222,11111222,11144222' 
ADCP,ioos:station:wmo:42369:1,2014-06-21T15:20:00Z,27.2070,-90.2830,60.4,1.2,333.0,99.0,'11111222,11111222,11144222' 
ADCP,ioos:station:wmo:42369:1,2014-06-21T15:40:00Z,27.2070,-90.2830,60.4,1.5,340.0,99.0,'11111222,11111222,11144222' 
ADCP,ioos:station:wmo:42369:1,2014-06-21T16:00:00Z,27.2070,-90.2830,60.4,1.7,343.0,99.0,'11111222,11111222,11144222' 
ADCP,ioos:station:wmo:42369:1,2014-06-21T16:20:00Z,27.2070,-90.2830,60.4,1.8,333.0,99.0,'11111222,11111222,11144222' 
ADCP,ioos:station:wmo:42369:1,2014-06-21T16:40:00Z,27.2070,-90.2830,60.4,1.8,333.0,99.0,'11111222,11111222,11144222' 
ADCP,ioos:station:wmo:42369:1,2014-06-21T17:00:00Z,27.2070,-90.2830,60.4,1.4,220.0,99.0,'11111222,11111222,11144222' 
ADCP,ioos:station:wmo:42369:1,2014-06-21T17:20:00Z,27.2070,-90.2830,60.4,1.4,220.0,99.0,'11111222,11111222,11144222' 
ADCP,ioos:station:wmo:42369:1,2014-06-21T17:40:00Z,27.2070,-90.2830,60.4,3.0,39.0,99.0,'11111222,11111222,11144222' 
ADCP,ioos:station:wmo:42369:1,2014-06-21T18:00:00Z,27.2070,-90.2830,60.4,3.7,34.0,99.0,'11111222,11111222,11144222' 
ADCP,ioos:station:wmo:42369:1,2014-06-21T18:20:00Z,27.2070,-90.2830,60.4,3.7,34.0,99.0,'11111222,11111222,11144222' 
ADCP,ioos:station:wmo:42369:1,2014-06-21T18:40:00Z,27.2070,-90.2830,60.4,3.3,24.0,99.0,'11111222,11111222,11144222' 
ADCP,ioos:station:wmo:42369:1,2014-06-21T19:00:00Z,27.2070,-90.2830,60.4,3.3,24.0,99.0,'11111222,11111222,11144222' 
ADCP,ioos:station:wmo:42369:1,2014-06-21T19:20:00Z,27.2070,-90.2830,60.4,3.3,24.0,99.0,'11111222,11111222,11144222' 
ADCP,ioos:station:wmo:42369:1,2014-06-21T19:40:00Z,27.2070,-90.2830,60.4,2.4,34.0,99.0,'11111222,11111222,11144222' 
ADCP,ioos:station:wmo:42369:1,2014-06-21T20:00:00Z,27.2070,-90.2830,60.4,2.4,34.0,99.0,'11111222,11111222,11144222' 
ADCP,ioos:station:wmo:42369:1,2014-06-21T20:20:00Z,27.2070,-90.2830,60.4,2.4,34.0,99.0,'11111222,11111222,11144222' 
ADCP,ioos:station:wmo:42369:1,2014-06-21T20:40:00Z,27.2070,-90.2830,60.4,1.5,211.0,99.0,'11111222,11111222,11144222' 
ADCP,ioos:station:wmo:42369:1,2014-06-21T21:00:00Z,27.2070,-90.2830,60.4,1.5,211.0,99.0,'11111222,11111222,11144222' 
ADCP,ioos:station:wmo:42369:1,2014-06-21T21:20:00Z,27.2070,-90.2830,60.4,1.5,211.0,99.0,'11111222,11111222,11144222' 
ADCP,ioos:station:wmo:42369:1,2014-06-21T21:40:00Z,27.2070,-90.2830,60.4,1.5,211.0,99.0,'11111222,11111222,11144222' 
ADCP,ioos:station:wmo:42369:1,2014-06-21T22:00:00Z,27.2070,-90.2830,60.4,1.8,145.0,99.0,'11111222,11111222,11144222' 
ADCP,ioos:station:wmo:42369:1,2014-06-21T22:20:00Z,27.2070,-90.2830,60.4,1.8,145.0,99.0,'11111222,11111222,11144222' 
ADCP,ioos:station:wmo:42369:1,2014-06-21T22:40:00Z,27.2070,-90.2830,60.4,1.8,145.0,99.0,'11111222,11111222,11144222' 
ADCP,ioos:station:wmo:42369:1,2014-06-21T23:00:00Z,27.2070,-90.2830,60.4,1.8,145.0,99.0,'11111222,11111222,11144222' 
ADCP,ioos:station:wmo:42369:1,2014-06-21T23:20:00Z,27.2070,-90.2830,60.4,1.8,145.0,99.0,'11111222,11111222,11144222' 
ADCP,ioos:station:wmo:42369:1,2014-06-21T23:40:00Z,27.2070,-90.2830,60.4,1.0,133.0,99.0,'11111222,11111222,11144222' 
ADCP,ioos:station:wmo:42369:1,2014-06-22T00:00:00Z,27.2070,-90.2830,60.4,1.0,133.0,99.0,'11111222,11111222,11144222' 
ADCP,ioos:station:wmo:42369:1,2014-06-22T00:20:00Z,27.2070,-90.2830,60.4,0.8,101.0,99.0,'11111222,11111222,11144222' 
ADCP,ioos:station:wmo:42369:1,2014-06-22T00:40:00Z,27.2070,-90.2830,60.4,0.8,101.0,99.0,'11111222,11111222,11144222' 
ADCP,ioos:station:wmo:42369:1,2014-06-22T01:00:00Z,27.2070,-90.2830,60.4,0.9,43.0,99.0,'11111222,11111222,11144222' 
ADCP,ioos:station:wmo:42369:1,2014-06-22T01:20:00Z,27.2070,-90.2830,60.4,0.2,78.0,99.0,'11111222,11111222,11144222' 
ADCP,ioos:station:wmo:42369:1,2014-06-22T01:40:00Z,27.2070,-90.2830,60.4,0.2,78.0,99.0,'11111222,11111222,11144222' 
ADCP,ioos:station:wmo:42369:1,2014-06-22T02:00:00Z,27.2070,-90.2830,60.4,0.2,101.0,99.0,'11111222,11111222,11144222' 
ADCP,ioos:station:wmo:42369:1,2014-06-22T02:20:00Z,27.2070,-90.2830,60.4,0.1,95.0,99.0,'11111222,11111222,11144222' 
ADCP,ioos:station:wmo:42369:1,2014-06-22T02:40:00Z,27.2070,-90.2830,60.4,0.1,95.0,99.0,'11111222,11111222,11144222' 
ADCP,ioos:station:wmo:42369:1,2014-06-22T03:00:00Z,27.2070,-90.2830,60.4,0.1,95.0,99.0,'11111222,11111222,11144222' 
ADCP,ioos:station:wmo:42369:1,2014-06-22T03:20:00Z,27.2070,-90.2830,60.4,0.2,281.0,99.0,'11111222,11111222,11144222' 
ADCP,ioos:station:wmo:42369:1,2014-06-22T03:40:00Z,27.2070,-90.2830,60.4,0.3,162.0,99.0,'11111222,11111222,11144222' 
ADCP,ioos:station:wmo:42369:1,2014-06-22T04:00:00Z,27.2070,-90.2830,60.4,0.7,178.0,99.0,'11111222,11111222,11144222' 
ADCP,ioos:station:wmo:42369:1,2014-06-22T04:20:00Z,27.2070,-90.2830,60.4,0.7,178.0,99.0,'11111222,11111222,11144222' 
ADCP,ioos:station:wmo:42369:1,2014-06-22T04:40:00Z,27.2070,-90.2830,60.4,0.7,178.0,99.0,'11111222,11111222,11144222' 
ADCP,ioos:station:wmo:42369:1,2014-06-22T05:00:00Z,27.2070,-90.2830,60.4,0.7,178.0,99.0,'11111222,11111222,11144222' 
ADCP,ioos:station:wmo:42369:1,2014-06-22T05:20:00Z,27.2070,-90.2830,60.4,0.7,178.0,99.0,'11111222,11111222,11144222' 
ADCP,ioos:station:wmo:42369:1,2014-06-22T05:40:00Z,27.2070,-90.2830,60.4,0.3,188.0,99.0,'11111222,11111222,11144222' 
ADCP,ioos:station:wmo:42369:1,2014-06-22T06:00:00Z,27.2070,-90.2830,60.4,0.3,188.0,99.0,'11111222,11111222,11144222' 
ADCP,ioos:station:wmo:42369:1,2014-06-22T06:20:00Z,27.2070,-90.2830,60.4,0.9,212.0,99.0,'11111222,11111222,11144222' 
ADCP,ioos:station:wmo:42369:1,2014-06-22T06:40:00Z,27.2070,-90.2830,60.4,0.9,212.0,99.0,'11111222,11111222,11144222' 
ADCP,ioos:station:wmo:42369:1,2014-06-22T07:00:00Z,27.2070,-90.2830,60.4,0.9,212.0,99.0,'11111222,11111222,11144222' 
ADCP,ioos:station:wmo:42369:1,2014-06-22T07:20:00Z,27.2070,-90.2830,60.4,0.9,212.0,99.0,'11111222,11111222,11144222' 
ADCP,ioos:station:wmo:42369:1,2014-06-22T07:40:00Z,27.2070,-90.2830,60.4,0.9,212.0,99.0,'11111222,11111222,11144222' 
ADCP,ioos:station:wmo:42369:1,2014-06-22T08:00:00Z,27.2070,-90.2830,60.4,1.7,222.0,99.0,'11111222,11111222,11144222' 
ADCP,ioos:station:wmo:42369:1,2014-06-22T08:20:00Z,27.2070,-90.2830,60.4,1.7,222.0,99.0,'11111222,11111222,11144222' 
ADCP,ioos:station:wmo:42369:1,2014-06-22T08:40:00Z,27.2070,-90.2830,60.4,2.0,230.0,99.0,'11111222,11111222,11144222' 
ADCP,ioos:station:wmo:42369:1,2014-06-22T09:00:00Z,27.2070,-90.2830,60.4,2.2,215.0,99.0,'11111222,11111222,11144222' 
ADCP,ioos:station:wmo:42369:1,2014-06-22T09:20:00Z,27.2070,-90.2830,60.4,2.4,227.0,99.0,'11111222,11111222,11144222' 
ADCP,ioos:station:wmo:42369:1,2014-06-22T09:40:00Z,27.2070,-90.2830,60.4,2.4,227.0,99.0,'11111222,11111222,11144222' 
ADCP,ioos:station:wmo:42369:1,2014-06-22T10:00:00Z,27.2070,-90.2830,60.4,2.4,227.0,99.0,'11111222,11111222,11144222' 
ADCP,ioos:station:wmo:42369:1,2014-06-22T10:20:00Z,27.2070,-90.2830,60.4,2.4,256.0,99.0,'11111222,11111222,11144222' 
ADCP,ioos:station:wmo:42369:1,2014-06-22T10:40:00Z,27.2070,-90.2830,60.4,2.1,244.0,99.0,'11111222,11111222,11144222' 
ADCP,ioos:station:wmo:42369:1,2014-06-22T11:00:00Z,27.2070,-90.2830,60.4,2.0,254.0,99.0,'11111222,11111222,11144222' 
ADCP,ioos:station:wmo:42369:1,2014-06-22T11:20:00Z,27.2070,-90.2830,60.4,1.8,260.0,99.0,'11111222,11111222,11144222' 
ADCP,ioos:station:wmo:42369:1,2014-06-22T11:40:00Z,27.2070,-90.2830,60.4,1.8,260.0,99.0,'11111222,11111222,11144222' 
ADCP,ioos:station:wmo:42369:1,2014-06-22T12:00:00Z,27.2070,-90.2830,60.4,2.4,273.0,99.0,'11111222,11111222,11144222' 
ADCP,ioos:station:wmo:42369:1,2014-06-22T12:20:00Z,27.2070,-90.2830,60.4,2.4,273.0,99.0,'11111222,11111222,11144222' 
ADCP,ioos:station:wmo:42369:1,2014-06-22T12:40:00Z,27.2070,-90.2830,60.4,2.6,304.0,99.0,'11111222,11111222,11144222' 
ADCP,ioos:station:wmo:42369:1,2014-06-22T13:00:00Z,27.2070,-90.2830,60.4,2.8,299.0,99.0,'11111222,11111222,11144222' 
ADCP,ioos:station:wmo:42369:1,2014-06-22T13:20:00Z,27.2070,-90.2830,60.4,2.8,299.0,99.0,'11111222,11111222,11144222' 
ADCP,ioos:station:wmo:42369:1,2014-06-22T13:40:00Z,27.2070,-90.2830,60.4,3.0,304.0,99.0,'11111222,11111222,11144222' 
ADCP,ioos:station:wmo:42369:1,2014-06-22T14:00:00Z,27.2070,-90.2830,60.4,3.0,304.0,99.0,'11111222,11111222,11144222' 
ADCP,ioos:station:wmo:42369:1,2014-06-22T14:20:00Z,27.2070,-90.2830,60.4,3.2,308.0,99.0,'11111222,11111222,11144222' 
ADCP,ioos:station:wmo:42369:1,2014-06-22T14:40:00Z,27.2070,-90.2830,60.4,2.7,315.0,99.0,'11111222,11111222,11144222' 
ADCP,ioos:station:wmo:42369:1,2014-06-22T15:00:00Z,27.2070,-90.2830,60.4,2.8,316.0,99.0,'11111222,11111222,11144222' 
ADCP,ioos:station:wmo:42369:1,2014-06-22T15:20:00Z,27.2070,-90.2830,60.4,2.8,316.0,99.0,'11111222,11111222,11144222' 
ADCP,ioos:station:wmo:42369:1,2014-06-22T15:40:00Z,27.2070,-90.2830,60.4,2.2,319.0,99.0,'11111222,11111222,11144222' 
ADCP,ioos:station:wmo:42369:1,2014-06-22T16:00:00Z,27.2070,-90.2830,60.4,1.6,325.0,99.0,'11111222,11111222,11144222' 
ADCP,ioos:station:wmo:42369:1,2014-06-22T16:20:00Z,27.2070,-90.2830,60.4,1.2,325.0,99.0,'11111222,11111222,11144222' 
ADCP,ioos:station:wmo:42369:1,2014-06-22T16:40:00Z,27.2070,-90.2830,60.4,1.2,325.0,99.0,'11111222,11111222,11144222' 
ADCP,ioos:station:wmo:42369:1,2014-06-22T17:00:00Z,27.2070,-90.2830,60.4,0.8,332.0,99.0,'11111222,11111222,11144222' 
ADCP,ioos:station:wmo:42369:1,2014-06-22T17:20:00Z,27.2070,-90.2830,60.4,0.8,332.0,99.0,'11111222,11111222,11144222' 
ADCP,ioos:station:wmo:42369:1,2014-06-22T17:40:00Z,27.2070,-90.2830,60.4,0.8,332.0,99.0,'11111222,11111222,11144222' 
ADCP,ioos:station:wmo:42369:1,2014-06-22T18:00:00Z,27.2070,-90.2830,60.4,1.0,272.0,99.0,'11111222,11111222,11144222' 
ADCP,ioos:station:wmo:42369:1,2014-06-22T18:20:00Z,27.2070,-90.2830,60.4,0.9,150.0,99.0,'11111222,11111222,11144222' 
ADCP,ioos:station:wmo:42369:1,2014-06-22T18:40:00Z,27.2070,-90.2830,60.4,0.8,150.0,99.0,'11111222,11111222,11144222' 
ADCP,ioos:station:wmo:42369:1,2014-06-22T19:00:00Z,27.2070,-90.2830,60.4,0.8,150.0,99.0,'11111222,11111222,11144222' 
ADCP,ioos:station:wmo:42369:1,2014-06-22T19:20:00Z,27.2070,-90.2830,60.4,0.5,333.0,99.0,'11111222,11111222,11144222' 
ADCP,ioos:station:wmo:42369:1,2014-06-22T19:40:00Z,27.2070,-90.2830,60.4,0.5,333.0,99.0,'11111222,11111222,11144222' 
ADCP,ioos:station:wmo:42369:1,2014-06-22T20:00:00Z,27.2070,-90.2830,60.4,1.1,340.0,99.0,'11111222,11111222,11144222' 
ADCP,ioos:station:wmo:42369:1,2014-06-22T20:20:00Z,27.2070,-90.2830,60.4,1.1,340.0,99.0,'11111222,11111222,11144222' 
ADCP,ioos:station:wmo:42369:1,2014-06-22T20:40:00Z,27.2070,-90.2830,60.4,1.1,340.0,99.0,'11111222,11111222,11144222' 
ADCP,ioos:station:wmo:42369:1,2014-06-22T21:00:00Z,27.2070,-90.2830,60.4,1.1,340.0,99.0,'11111222,11111222,11144222' 
ADCP,ioos:station:wmo:42369:1,2014-06-22T21:20:00Z,27.2070,-90.2830,60.4,1.1,340.0,99.0,'11111222,11111222,11144222' 
ADCP,ioos:station:wmo:42369:1,2014-06-22T21:40:00Z,27.2070,-90.2830,60.4,1.1,340.0,99.0,'11111222,11111222,11144222' 
ADCP,ioos:station:wmo:42369:1,2014-06-22T22:00:00Z,27.2070,-90.2830,60.4,0.5,278.0,99.0,'11111222,11111222,11144222' 
ADCP,ioos:station:wmo:42369:1,2014-06-22T22:20:00Z,27.2070,-90.2830,60.4,0.5,278.0,99.0,'11111222,11111222,11144222' 
ADCP,ioos:station:wmo:42369:1,2014-06-22T22:40:00Z,27.2070,-90.2830,60.4,0.2,246.0,99.0,'11111222,11111222,11144222' 
ADCP,ioos:station:wmo:42369:1,2014-06-22T23:00:00Z,27.2070,-90.2830,60.4,0.2,246.0,99.0,'11111222,11111222,11144222' 
ADCP,ioos:station:wmo:42369:1,2014-06-22T23:20:00Z,27.2070,-90.2830,60.4,0.6,302.0,99.0,'11111222,11111222,11144222' 
ADCP,ioos:station:wmo:42369:1,2014-06-22T23:40:00Z,27.2070,-90.2830,60.4,0.4,273.0,99.0,'11111222,11111222,11144222' 
ADCP,ioos:station:wmo:42369:1,2014-06-23T00:00:00Z,27.2070,-90.2830,60.4,0.4,273.0,99.0,'11111222,11111222,11144222' 
ADCP,ioos:station:wmo:42369:1,2014-06-23T00:20:00Z,27.2070,-90.2830,60.4,0.1,314.0,99.0,'11111222,11111222,11144222' 
ADCP,ioos:station:wmo:42369:1,2014-06-23T00:40:00Z,27.2070,-90.2830,60.4,0.4,315.0,99.0,'11111222,11111222,11144222' 
ADCP,ioos:station:wmo:42369:1,2014-06-23T01:00:00Z,27.2070,-90.2830,60.4,0.6,327.0,99.0,'11111222,11111222,11144222' 
ADCP,ioos:station:wmo:42369:1,2014-06-23T01:20:00Z,27.2070,-90.2830,60.4,0.6,327.0,99.0,'11111222,11111222,11144222' 
ADCP,ioos:station:wmo:42369:1,2014-06-23T01:40:00Z,27.2070,-90.2830,60.4,1.5,141.0,99.0,'11111222,11111222,11144222' 
ADCP,ioos:station:wmo:42369:1,2014-06-23T02:00:00Z,27.2070,-90.2830,60.4,1.5,141.0,99.0,'11111222,11111222,11144222' 
ADCP,ioos:station:wmo:42369:1,2014-06-23T02:20:00Z,27.2070,-90.2830,60.4,1.0,53.0,99.0,'11111222,11111222,11144222' 
ADCP,ioos:station:wmo:42369:1,2014-06-23T02:40:00Z,27.2070,-90.2830,60.4,0.6,54.0,99.0,'11111222,11111222,11144222' 
ADCP,ioos:station:wmo:42369:1,2014-06-23T03:00:00Z,27.2070,-90.2830,60.4,0.4,75.0,99.0,'11111222,11111222,11144222' 
ADCP,ioos:station:wmo:42369:1,2014-06-23T03:20:00Z,27.2070,-90.2830,60.4,0.4,75.0,99.0,'11111222,11111222,11144222' 
ADCP,ioos:station:wmo:42369:1,2014-06-23T03:40:00Z,27.2070,-90.2830,60.4,0.6,91.0,99.0,'11111222,11111222,11144222' 
ADCP,ioos:station:wmo:42369:1,2014-06-23T04:00:00Z,27.2070,-90.2830,60.4,0.5,97.0,99.0,'11111222,11111222,11144222' 
ADCP,ioos:station:wmo:42369:1,2014-06-23T04:20:00Z,27.2070,-90.2830,60.4,0.3,95.0,99.0,'11111222,11111222,11144222' 
ADCP,ioos:station:wmo:42369:1,2014-06-23T04:40:00Z,27.2070,-90.2830,60.4,0.3,95.0,99.0,'11111222,11111222,11144222' 
ADCP,ioos:station:wmo:42369:1,2014-06-23T05:00:00Z,27.2070,-90.2830,60.4,0.3,95.0,99.0,'11111222,11111222,11144222' 
ADCP,ioos:station:wmo:42369:1,2014-06-23T05:20:00Z,27.2070,-90.2830,60.4,0.7,104.0,99.0,'11111222,11111222,11144222' 
ADCP,ioos:station:wmo:42369:1,2014-06-23T05:40:00Z,27.2070,-90.2830,60.4,0.7,104.0,99.0,'11111222,11111222,11144222' 
ADCP,ioos:station:wmo:42369:1,2014-06-23T06:00:00Z,27.2070,-90.2830,60.4,0.5,121.0,99.0,'11111222,11111222,11144222' 
ADCP,ioos:station:wmo:42369:1,2014-06-23T06:20:00Z,27.2070,-90.2830,60.4,0.8,127.0,99.0,'11111222,11111222,11144222' 
ADCP,ioos:station:wmo:42369:1,2014-06-23T06:40:00Z,27.2070,-90.2830,60.4,0.8,127.0,99.0,'11111222,11111222,11144222' 
ADCP,ioos:station:wmo:42369:1,2014-06-23T07:00:00Z,27.2070,-90.2830,60.4,0.8,127.0,99.0,'11111222,11111222,11144222' 
ADCP,ioos:station:wmo:42369:1,2014-06-23T07:20:00Z,27.2070,-90.2830,60.4,2.3,162.0,99.0,'11111222,11111222,11144222' 
ADCP,ioos:station:wmo:42369:1,2014-06-23T07:40:00Z,27.2070,-90.2830,60.4,2.3,162.0,99.0,'11111222,11111222,11144222' 
ADCP,ioos:station:wmo:42369:1,2014-06-23T08:00:00Z,27.2070,-90.2830,60.4,3.8,172.0,99.0,'11111222,11111222,11144222' 
ADCP,ioos:station:wmo:42369:1,2014-06-23T08:20:00Z,27.2070,-90.2830,60.4,3.8,172.0,99.0,'11111222,11111222,11144222' 
ADCP,ioos:station:wmo:42369:1,2014-06-23T08:40:00Z,27.2070,-90.2830,60.4,3.7,173.0,99.0,'11111222,11111222,11144222' 
ADCP,ioos:station:wmo:42369:1,2014-06-23T09:00:00Z,27.2070,-90.2830,60.4,3.7,173.0,99.0,'11111222,11111222,11144222' 
ADCP,ioos:station:wmo:42369:1,2014-06-23T09:20:00Z,27.2070,-90.2830,60.4,4.8,183.0,99.0,'11111222,11111222,11144222' 
ADCP,ioos:station:wmo:42369:1,2014-06-23T09:40:00Z,27.2070,-90.2830,60.4,4.8,183.0,99.0,'11111222,11111222,11144222' 
ADCP,ioos:station:wmo:42369:1,2014-06-23T10:00:00Z,27.2070,-90.2830,60.4,4.4,192.0,99.0,'11111222,11111222,11144222' 
ADCP,ioos:station:wmo:42369:1,2014-06-23T10:20:00Z,27.2070,-90.2830,60.4,4.9,194.0,99.0,'11111222,11111222,11144222' 
ADCP,ioos:station:wmo:42369:1,2014-06-23T10:40:00Z,27.2070,-90.2830,60.4,4.7,196.0,99.0,'11111222,11111222,11144222' 
ADCP,ioos:station:wmo:42369:1,2014-06-23T11:00:00Z,27.2070,-90.2830,60.4,4.7,196.0,99.0,'11111222,11111222,11144222' 
ADCP,ioos:station:wmo:42369:1,2014-06-23T11:20:00Z,27.2070,-90.2830,60.4,4.3,204.0,99.0,'11111222,11111222,11144222' 
ADCP,ioos:station:wmo:42369:1,2014-06-23T11:40:00Z,27.2070,-90.2830,60.4,4.2,216.0,99.0,'11111222,11111222,11144222' 
ADCP,ioos:station:wmo:42369:1,2014-06-23T12:00:00Z,27.2070,-90.2830,60.4,3.7,218.0,99.0,'11111222,11111222,11144222' 
ADCP,ioos:station:wmo:42369:1,2014-06-23T12:20:00Z,27.2070,-90.2830,60.4,3.6,219.0,99.0,'11111222,11111222,11144222' 
ADCP,ioos:station:wmo:42369:1,2014-06-23T12:40:00Z,27.2070,-90.2830,60.4,3.6,219.0,99.0,'11111222,11111222,11144222' 
ADCP,ioos:station:wmo:42369:1,2014-06-23T13:00:00Z,27.2070,-90.2830,60.4,3.2,202.0,99.0,'11111222,11111222,11144222' 
ADCP,ioos:station:wmo:42369:1,2014-06-23T13:20:00Z,27.2070,-90.2830,60.4,2.9,214.0,99.0,'11111222,11111222,11144222' 
ADCP,ioos:station:wmo:42369:1,2014-06-23T13:40:00Z,27.2070,-90.2830,60.4,2.9,219.0,99.0,'11111222,11111222,11144222' 
ADCP,ioos:station:wmo:42369:1,2014-06-23T14:00:00Z,27.2070,-90.2830,60.4,2.8,224.0,99.0,'11111222,11111222,11144222' 
ADCP,ioos:station:wmo:42369:1,2014-06-23T14:20:00Z,27.2070,-90.2830,60.4,2.7,227.0,99.0,'11111222,11111222,11144222' 
ADCP,ioos:station:wmo:42369:1,2014-06-23T14:40:00Z,27.2070,-90.2830,60.4,2.8,227.0,99.0,'11111222,11111222,11144222' 
ADCP,ioos:station:wmo:42369:1,2014-06-23T15:00:00Z,27.2070,-90.2830,60.4,2.8,227.0,99.0,'11111222,11111222,11144222' 
ADCP,ioos:station:wmo:42369:1,2014-06-23T15:20:00Z,27.2070,-90.2830,60.4,2.5,240.0,99.0,'11111222,11111222,11144222' 
ADCP,ioos:station:wmo:42369:1,2014-06-23T15:40:00Z,27.2070,-90.2830,60.4,2.5,240.0,99.0,'11111222,11111222,11144222' 
ADCP,ioos:station:wmo:42369:1,2014-06-23T16:00:00Z,27.2070,-90.2830,60.4,2.3,280.0,99.0,'11111222,11111222,11144222' 
ADCP,ioos:station:wmo:42369:1,2014-06-23T16:20:00Z,27.2070,-90.2830,60.4,2.3,277.0,99.0,'11111222,11111222,11144222' 
ADCP,ioos:station:wmo:42369:1,2014-06-23T16:40:00Z,27.2070,-90.2830,60.4,2.0,279.0,99.0,'11111222,11111222,11144222' 
ADCP,ioos:station:wmo:42369:1,2014-06-23T17:00:00Z,27.2070,-90.2830,60.4,1.5,313.0,99.0,'11111222,11111222,11144222' 
ADCP,ioos:station:wmo:42369:1,2014-06-23T17:20:00Z,27.2070,-90.2830,60.4,1.5,313.0,99.0,'11111222,11111222,11144222' 